{"data":{"norad_id":60553,"intl_designator":"2024-149CP","name":"BRO-15","alt_names":[],"object_type":"PAYLOAD","status":"ACTIVE","operator":null,"country":"FR","launch_date":"2024-08-16","launch_site_code":"AFWTR","launch_vehicle":null,"mission":null,"orbit_class":"UNKNOWN","rcs_meters":null,"size_class":null,"mass_kg":null,"dimensions":null,"purposes":[],"wikipedia_slug":null,"has_3d_model":false,"image_url":null,"decayed_at":null,"tle_current":{"epoch":"2026-05-25T04:05:40.653024Z","epoch_age_seconds":60643,"freshness":"FRESH","line1":"1 60553U 24149CP  26145.17060941  .00000886  00000+0  83838-4 0  9990","line2":"2 60553  97.6809 220.9851 0008690 154.1509 206.0148 14.96085346 96568","mean_motion":14.96085346,"eccentricity":0.000869,"inclination_deg":97.6809,"raan_deg":220.9851,"arg_perigee_deg":154.1509,"mean_anomaly_deg":206.0148,"bstar":8.3838e-5,"rev_number":9656,"period_min":96.251193412866,"perigee_km":572.96021837815,"apogee_km":585.05173286979,"semimajor_km":6957.142975624,"source":"CELESTRAK","updated_at":"2026-05-25T13:38:02.152961Z"}}}